Find Starlink 4629

NORAD ID: 53968 Int'l Des: 2022-125 Owner: SPXS Country: US Constellation: starlink operational
LEOCIRCULAR

現在のビュー

3D地球を読み込み中...

About Starlink 4629

Starlink 4629 (NORAD 53968) is a starlink constellation satellite (v1.5) launched Oct 5, 2022 by SPXS of US. It operates in LEO, CIRCULAR orbit with a mass of 305.00 kg.

Starlink 4629について

説明を読み込み中...

次回通過

Passes for default location (London). Set your location on the main map for personalized predictions.

高度履歴

Loading altitude history...

軌道要素

1 53968U 22125E 26170.17192950 -.00001067 00000-0 -48953-4 0 9992
2 53968 53.1606 128.3596 0001305 70.3780 289.7352 15.08836298204644
Epoch: Jun 19, 2026 • Age: 6 hours

現在のステータス

高度 549.1 km
速度 7.59 km/s
衛星直下点 -28.67°S, 84.09°W
打ち上げ日 Oct 5, 2022
運用期間 3.7 years
タイプ internet

技術仕様

分類 Payload
質量 305.00 kg
乾燥質量 290.00 kg
総質量 305.00 kg
長さ 0.20 m
直径 2.80 m
スパン 9.00 m
形状 Box + pan
製造者 SPXS
バスタイプ Starlink
フェーズステータス In Orbit
所有者/国 SPXS/US

Most Searched